Tracking 19792 objects as of 16-Jul-2019
HD Live streaming from Space Station
objects crossing your sky now

SINAH 1

Track SINAH 1 now!
10-day predictions
SINAH 1 is classified as:


NORAD ID: 28893
Int'l Code: 2005-043D
Perigee: 685.7 km
Apogee: 705.3 km
Inclination: 98.0 °
Period: 98.5 minutes
Semi major axis: 7066 km
RCS: 0.8773 m2 (medium)
Launch date: October 27, 2005
Source: Iran (IRAN)
Launch site: PLESETSK MISSILE AND SPACE COMPLEX (PKMTR)

Sinah 1 is an Iranian microsatellite (170 kg). Iranian press reports that it is intended for "telecommunications and research".
aabbcc
Your satellite tracking list
Your tracking list is empty




NASA's NSSDC Master Catalog

Two Line Element Set (TLE):
1 28893U 05043D   19196.88423921 -.00000028 +00000-0 +34444-5 0  9990
2 28893 097.9773 333.2863 0013869 285.1635 074.8032 14.61506787731010
Source of the keplerian elements: AFSPC